User: anonymous   Login
Location: Newark
(37.8333°N, 119.5000°W)
Time: 03:49:37
(UTC+00:00)
Language:

Explorer 7 - Orbit

View from above orbital plane
View from above orbital plane
View from above satellite
View from above satellite

Ground track
Ground track

The orbit data is extracted from the following two-line orbital elements,

1    22U 59009A   20220.83097793 -.00000037  00000-0  20754-4 0  9992
2    22  50.2820 220.9928 0139361  95.0385 266.6486 14.95170273233014
Epoch (UTC): 07 August 2020 19:56:36
Eccentricity: 0.0139361
inclination: 50.2820°
perigee height: 485 km
apogee height: 679 km
right ascension of ascending node: 220.9928°
argument of perigee: 95.0385°
revolutions per day: 14.95170273
mean anomaly at epoch: 266.6486°
orbit number at epoch: 23301

The dashed part of the orbit path shows where the satellite is in the earth's shadow,  

DLR